Time,TemperatureF,DewpointF,PressureIn,WindDirection,WindDirectionDegrees,WindSpeedMPH,WindSpeedGustMPH,Humidity,HourlyPrecipIn,Conditions,Clouds,dailyrainin,SoftwareType,DateUTC
2013-03-06 00:02:00,18.0,14.0,30.57,WNW,295,1.0,6.0,85,0.00,,,0.00,weatherlink.com 1.10,2013-03-06 06:02:00,
2013-03-06 00:17:00,17.9,14.0,30.57,WNW,303,1.0,8.0,85,0.00,,,0.00,weatherlink.com 1.10,2013-03-06 06:17:00,
2013-03-06 00:32:00,17.8,14.0,30.57,NNW,339,3.0,6.0,85,0.00,,,0.00,weatherlink.com 1.10,2013-03-06 06:32:00,
2013-03-06 00:47:00,17.7,14.0,30.57,WNW,294,0.0,4.0,85,0.00,,,0.00,weatherlink.com 1.10,2013-03-06 06:47:00,
2013-03-06 01:02:00,17.5,14.0,30.57,West,263,0.0,5.0,85,0.00,,,0.00,weatherlink.com 1.10,2013-03-06 07:02:00,
2013-03-06 01:17:00,17.4,14.0,30.57,NW,314,2.0,7.0,85,0.00,,,0.00,weatherlink.com 1.10,2013-03-06 07:17:00,
2013-03-06 01:32:00,17.3,14.0,30.57,West,280,1.0,7.0,85,0.00,,,0.00,weatherlink.com 1.10,2013-03-06 07:32:00,
2013-03-06 01:47:00,17.2,14.0,30.57,WNW,297,0.0,5.0,85,0.00,,,0.00,weatherlink.com 1.10,2013-03-06 07:47:00,
2013-03-06 02:02:00,17.1,13.0,30.57,NW,316,1.0,6.0,85,0.00,,,0.00,weatherlink.com 1.10,2013-03-06 08:02:00,
2013-03-06 02:17:00,17.1,13.0,30.57,WNW,289,1.0,5.0,85,0.00,,,0.00,weatherlink.com 1.10,2013-03-06 08:17:00,
2013-03-06 02:32:00,17.0,13.0,30.57,WNW,297,1.0,5.0,85,0.00,,,0.00,weatherlink.com 1.10,2013-03-06 08:32:00,
2013-03-06 02:47:00,17.0,13.0,30.57,NW,304,2.0,5.0,85,0.00,,,0.00,weatherlink.com 1.10,2013-03-06 08:47:00,
2013-03-06 03:02:00,16.9,13.0,30.57,WNW,295,6.0,6.0,85,0.00,,,0.00,weatherlink.com 1.10,2013-03-06 09:02:00,
2013-03-06 03:17:00,16.8,13.0,30.57,NW,316,1.0,5.0,85,0.00,,,0.00,weatherlink.com 1.10,2013-03-06 09:17:00,
2013-03-06 03:32:00,16.8,13.0,30.57,NW,304,2.0,5.0,85,0.00,,,0.00,weatherlink.com 1.10,2013-03-06 09:32:00,
2013-03-06 03:47:00,16.7,13.0,30.56,WNW,293,1.0,5.0,85,0.00,,,0.00,weatherlink.com 1.10,2013-03-06 09:47:00,
2013-03-06 04:02:00,16.7,13.0,30.57,NW,318,1.0,5.0,85,0.00,,,0.00,weatherlink.com 1.10,2013-03-06 10:02:00,
2013-03-06 04:17:00,16.7,13.0,30.57,WNW,293,1.0,4.0,85,0.00,,,0.00,weatherlink.com 1.10,2013-03-06 10:17:00,
2013-03-06 04:32:00,16.6,13.0,30.57,WNW,301,2.0,4.0,85,0.00,,,0.00,weatherlink.com 1.10,2013-03-06 10:32:00,
2013-03-06 04:47:00,16.6,13.0,30.57,NW,311,1.0,6.0,85,0.00,,,0.00,weatherlink.com 1.10,2013-03-06 10:47:00,
2013-03-06 05:02:00,16.5,13.0,30.58,NW,315,0.0,4.0,85,0.00,,,0.00,weatherlink.com 1.10,2013-03-06 11:02:00,
2013-03-06 05:17:00,16.6,13.0,30.59,WNW,301,1.0,3.0,85,0.00,,,0.00,weatherlink.com 1.10,2013-03-06 11:17:00,
2013-03-06 05:32:00,16.5,13.0,30.59,WNW,301,1.0,4.0,85,0.00,,,0.00,weatherlink.com 1.10,2013-03-06 11:32:00,
2013-03-06 05:47:00,16.5,13.0,30.59,WNW,295,1.0,3.0,85,0.00,,,0.00,weatherlink.com 1.10,2013-03-06 11:47:00,
2013-03-06 06:02:00,16.5,13.0,30.59,WNW,284,0.0,4.0,85,0.00,,,0.00,weatherlink.com 1.10,2013-03-06 12:02:00,
2013-03-06 06:17:00,16.4,13.0,30.60,WNW,290,0.0,3.0,86,0.00,,,0.00,weatherlink.com 1.10,2013-03-06 12:17:00,
2013-03-06 06:32:00,16.3,13.0,30.60,WNW,293,0.0,4.0,86,0.00,,,0.00,weatherlink.com 1.10,2013-03-06 12:32:00,
2013-03-06 06:47:00,16.3,13.0,30.60,West,274,0.0,4.0,86,0.00,,,0.00,weatherlink.com 1.10,2013-03-06 12:47:00,
2013-03-06 07:02:00,16.3,13.0,30.61,NW,318,1.0,3.0,86,0.00,,,0.00,weatherlink.com 1.10,2013-03-06 13:02:00,
2013-03-06 07:17:00,16.3,13.0,30.61,NW,322,3.0,3.0,86,0.00,,,0.00,weatherlink.com 1.10,2013-03-06 13:17:00,
2013-03-06 07:33:00,16.4,13.0,30.61,NW,311,0.0,3.0,86,0.00,,,0.00,weatherlink.com 1.10,2013-03-06 13:33:00,
2013-03-06 07:47:00,16.6,13.0,30.60,NW,305,0.0,3.0,86,0.00,,,0.00,weatherlink.com 1.10,2013-03-06 13:47:00,
2013-03-06 08:03:00,16.9,13.0,30.61,NNW,345,3.0,3.0,85,0.00,,,0.00,weatherlink.com 1.10,2013-03-06 14:03:00,
2013-03-06 08:18:00,17.2,14.0,30.61,NW,312,0.0,2.0,85,0.00,,,0.00,weatherlink.com 1.10,2013-03-06 14:18:00,
2013-03-06 08:33:00,17.6,14.0,30.61,NNW,328,0.0,2.0,84,0.00,,,0.00,weatherlink.com 1.10,2013-03-06 14:33:00,
2013-03-06 08:48:00,18.2,14.0,30.61,NNW,340,0.0,1.0,83,0.00,,,0.00,weatherlink.com 1.10,2013-03-06 14:48:00,
2013-03-06 09:03:00,18.6,14.0,30.61,NW,304,0.0,2.0,82,0.00,,,0.00,weatherlink.com 1.10,2013-03-06 15:03:00,
2013-03-06 09:18:00,19.3,15.0,30.61,NNE,22,0.0,1.0,82,0.00,,,0.00,weatherlink.com 1.10,2013-03-06 15:18:00,
2013-03-06 09:33:00,19.9,15.0,30.61,NNE,14,0.0,1.0,80,0.00,,,0.00,weatherlink.com 1.10,2013-03-06 15:33:00,
2013-03-06 10:03:00,20.4,15.0,30.61,WNW,300,0.0,2.0,80,0.00,,,0.00,weatherlink.com 1.10,2013-03-06 16:03:00,
2013-03-06 10:18:00,20.9,15.0,30.60,NW,322,1.0,2.0,79,0.00,,,0.00,weatherlink.com 1.10,2013-03-06 16:18:00,
2013-03-06 10:33:00,20.8,15.0,30.60,North,356,1.0,3.0,78,0.00,,,0.00,weatherlink.com 1.10,2013-03-06 16:33:00,
2013-03-06 10:48:00,21.0,15.0,30.59,NNE,24,2.0,3.0,79,0.00,,,0.00,weatherlink.com 1.10,2013-03-06 16:48:00,
2013-03-06 11:03:00,20.9,15.0,30.59,NE,55,2.0,4.0,78,0.00,,,0.00,weatherlink.com 1.10,2013-03-06 17:03:00,
2013-03-06 11:18:00,21.6,16.0,30.59,ENE,65,1.0,3.0,79,0.00,,,0.00,weatherlink.com 1.10,2013-03-06 17:18:00,
2013-03-06 11:33:00,22.1,16.0,30.59,NE,44,2.0,2.0,77,0.00,,,0.00,weatherlink.com 1.10,2013-03-06 17:33:00,
2013-03-06 11:48:00,22.3,16.0,30.58,East,92,0.0,2.0,77,0.00,,,0.00,weatherlink.com 1.10,2013-03-06 17:48:00,
2013-03-06 12:03:00,22.8,16.0,30.58,East,94,1.0,2.0,75,0.00,,,0.00,weatherlink.com 1.10,2013-03-06 18:03:00,
2013-03-06 12:18:00,23.3,16.0,30.58,ENE,77,1.0,2.0,74,0.00,,,0.00,weatherlink.com 1.10,2013-03-06 18:18:00,
2013-03-06 12:33:00,23.7,16.0,30.57,ENE,71,1.0,2.0,73,0.00,,,0.00,weatherlink.com 1.10,2013-03-06 18:33:00,
2013-03-06 12:48:00,23.7,16.0,30.57,East,84,2.0,2.0,72,0.00,,,0.00,weatherlink.com 1.10,2013-03-06 18:48:00,
2013-03-06 13:03:00,24.9,16.0,30.57,ESE,103,0.0,2.0,70,0.00,,,0.00,weatherlink.com 1.10,2013-03-06 19:03:00,
2013-03-06 13:18:00,24.9,15.0,30.56,East,92,1.0,4.0,66,0.00,,,0.00,weatherlink.com 1.10,2013-03-06 19:18:00,
2013-03-06 13:33:00,24.2,14.0,30.55,ENE,71,0.0,2.0,66,0.00,,,0.00,weatherlink.com 1.10,2013-03-06 19:33:00,
2013-03-06 13:48:00,23.6,14.0,30.55,East,83,1.0,2.0,66,0.00,,,0.00,weatherlink.com 1.10,2013-03-06 19:48:00,
2013-03-06 14:03:00,23.4,14.0,30.54,ENE,71,1.0,3.0,67,0.00,,,0.00,weatherlink.com 1.10,2013-03-06 20:03:00,
2013-03-06 14:18:00,23.5,15.0,30.53,East,79,1.0,3.0,69,0.00,,,0.00,weatherlink.com 1.10,2013-03-06 20:18:00,
2013-03-06 14:33:00,22.7,14.0,30.53,East,92,1.0,3.0,70,0.00,,,0.00,weatherlink.com 1.10,2013-03-06 20:33:00,
2013-03-06 14:48:00,22.8,14.0,30.53,East,81,2.0,3.0,69,0.00,,,0.00,weatherlink.com 1.10,2013-03-06 20:48:00,
2013-03-06 15:03:00,22.5,14.0,30.53,NE,39,1.0,2.0,70,0.00,,,0.00,weatherlink.com 1.10,2013-03-06 21:03:00,
2013-03-06 15:18:00,22.2,13.0,30.52,East,81,2.0,2.0,69,0.00,,,0.00,weatherlink.com 1.10,2013-03-06 21:18:00,
2013-03-06 15:33:00,22.3,14.0,30.53,East,84,1.0,2.0,71,0.00,,,0.00,weatherlink.com 1.10,2013-03-06 21:33:00,
2013-03-06 15:48:00,22.2,14.0,30.52,ENE,75,2.0,2.0,72,0.00,,,0.00,weatherlink.com 1.10,2013-03-06 21:48:00,
2013-03-06 16:03:00,22.0,14.0,30.52,East,79,1.0,3.0,71,0.00,,,0.00,weatherlink.com 1.10,2013-03-06 22:03:00,
2013-03-06 16:18:00,21.6,14.0,30.52,East,82,1.0,3.0,72,0.00,,,0.00,weatherlink.com 1.10,2013-03-06 22:18:00,
2013-03-06 16:33:00,21.3,14.0,30.51,ENE,74,1.0,4.0,74,0.00,,,0.00,weatherlink.com 1.10,2013-03-06 22:33:00,
2013-03-06 16:48:00,21.4,15.0,30.51,East,91,2.0,2.0,75,0.00,,,0.00,weatherlink.com 1.10,2013-03-06 22:48:00,
2013-03-06 17:03:00,20.8,14.0,30.50,East,90,1.0,3.0,75,0.00,,,0.00,weatherlink.com 1.10,2013-03-06 23:03:00,
2013-03-06 17:18:00,20.7,14.0,30.50,East,79,1.0,2.0,76,0.00,,,0.00,weatherlink.com 1.10,2013-03-06 23:18:00,
2013-03-06 17:33:00,20.1,14.0,30.50,East,83,1.0,4.0,76,0.00,,,0.00,weatherlink.com 1.10,2013-03-06 23:33:00,
2013-03-06 17:48:00,19.4,14.0,30.50,ENE,72,1.0,5.0,78,0.00,,,0.00,weatherlink.com 1.10,2013-03-06 23:48:00,
2013-03-06 18:03:00,17.4,11.0,30.50,East,92,2.0,2.0,77,0.00,,,0.00,weatherlink.com 1.10,2013-03-07 00:03:00,
2013-03-06 18:18:00,16.1,11.0,30.49,ENE,70,0.0,2.0,79,0.00,,,0.00,weatherlink.com 1.10,2013-03-07 00:18:00,
2013-03-06 18:34:00,14.7,9.0,30.49,East,80,0.0,1.0,79,0.00,,,0.00,weatherlink.com 1.10,2013-03-07 00:34:00,
2013-03-06 18:49:00,13.2,8.0,30.49,East,83,0.0,1.0,81,0.00,,,0.00,weatherlink.com 1.10,2013-03-07 00:49:00,
2013-03-06 19:04:00,13.1,9.0,30.49,East,82,0.0,1.0,83,0.00,,,0.00,weatherlink.com 1.10,2013-03-07 01:04:00,
2013-03-06 19:19:00,12.2,8.0,30.49,East,82,0.0,1.0,82,0.00,,,0.00,weatherlink.com 1.10,2013-03-07 01:19:00,
2013-03-06 19:34:00,12.2,8.0,30.49,ENE,75,0.0,1.0,84,0.00,,,0.00,weatherlink.com 1.10,2013-03-07 01:34:00,
2013-03-06 19:49:00,11.4,7.0,30.49,ENE,70,1.0,1.0,83,0.00,,,0.00,weatherlink.com 1.10,2013-03-07 01:49:00,
2013-03-06 20:04:00,11.2,7.0,30.49,ENE,60,0.0,2.0,84,0.00,,,0.00,weatherlink.com 1.10,2013-03-07 02:04:00,
2013-03-06 20:19:00,11.8,8.0,30.49,ENE,64,0.0,1.0,85,0.00,,,0.00,weatherlink.com 1.10,2013-03-07 02:19:00,
2013-03-06 20:34:00,11.7,8.0,30.50,ENE,64,0.0,0.0,85,0.00,,,0.00,weatherlink.com 1.10,2013-03-07 02:34:00,
2013-03-06 20:49:00,11.7,8.0,30.50,ENE,64,0.0,0.0,86,0.00,,,0.00,weatherlink.com 1.10,2013-03-07 02:49:00,
2013-03-06 21:04:00,11.3,8.0,30.51,ENE,64,0.0,0.0,86,0.00,,,0.00,weatherlink.com 1.10,2013-03-07 03:04:00,
2013-03-06 21:19:00,11.3,8.0,30.51,ENE,64,0.0,0.0,87,0.00,,,0.00,weatherlink.com 1.10,2013-03-07 03:19:00,
2013-03-06 21:34:00,11.1,8.0,30.51,ENE,64,0.0,0.0,87,0.00,,,0.00,weatherlink.com 1.10,2013-03-07 03:34:00,
2013-03-06 21:49:00,10.8,8.0,30.50,ENE,64,0.0,0.0,87,0.00,,,0.00,weatherlink.com 1.10,2013-03-07 03:49:00,
2013-03-06 22:04:00,9.2,6.0,30.49,ENE,78,0.0,1.0,86,0.00,,,0.00,weatherlink.com 1.10,2013-03-07 04:04:00,
2013-03-06 22:19:00,8.3,5.0,30.49,ENE,78,0.0,1.0,87,0.00,,,0.00,weatherlink.com 1.10,2013-03-07 04:19:00,
2013-03-06 22:34:00,8.9,6.0,30.48,ENE,78,0.0,1.0,88,0.00,,,0.00,weatherlink.com 1.10,2013-03-07 04:34:00,
2013-03-06 22:49:00,8.3,5.0,30.48,East,79,0.0,0.0,86,0.00,,,0.00,weatherlink.com 1.10,2013-03-07 04:49:00,
2013-03-06 23:04:00,8.8,6.0,30.48,ESE,118,0.0,1.0,87,0.00,,,0.00,weatherlink.com 1.10,2013-03-07 05:04:00,
2013-03-06 23:19:00,9.2,6.0,30.47,ESE,118,0.0,1.0,87,0.00,,,0.00,weatherlink.com 1.10,2013-03-07 05:19:00,
2013-03-06 23:34:00,7.1,4.0,30.48,ESE,118,0.0,0.0,85,0.00,,,0.00,weatherlink.com 1.10,2013-03-07 05:34:00,
2013-03-06 23:49:00,7.7,5.0,30.48,ESE,118,0.0,0.0,87,0.00,,,0.00,weatherlink.com 1.10,2013-03-07 05:49:00,